Regional Weather Roundup
Issued by NWS

Home | Current Version | Previous Version | Text Only | Print | Product List | Glossary On
Versions: 1 2 3 4 5 6 7 8 9 10 11 12 13 14 15 16 17 18 19 20 21 22 23 24 25 26 27 28 29 30 31 32 33 34 35 36 37 38 39 40 41 42 43 44 45 46 47 48 49 50
000
ASHW40 PHFO 012330
RWRHI

WEATHER ROUNDUP FOR HAWAII
NATIONAL WEATHER SERVICE HONOLULU HI
100 PM HST SUN FEB 01 2015

THIS IS AN AUTOMATED REPORT THAT HAS NOT BEEN QUALITY CONTROLLED.

NOTE..."FAIR" INDICATES FEW OR NO CLOUDS BELOW 12,000 FEET WITH NO
SIGNIFICANT WEATHER AND/OR OBSTRUCTIONS TO VISIBILITY.

* - THESE SITES REPORT LIMITED FIELDS

HIZ001>004-020000-
KAUAI-NIIHAU-

CITY           SKY/WX    TMP DP  RH WIND       PRES   REMARKS
LIHUE APT      CLOUDY    77  63  61 NE5       29.97F
PORT ALLEN*      N/A     82 N/A N/A SE14G21     N/A
POIPU*           N/A     79 N/A N/A NE7G15      N/A
PRINCEVILLE*     N/A     75 N/A N/A MISG        N/A
KOKOLE POINT*  NOT AVBL
MOLOAA DAIRY*  NOT AVBL
WAIMEA HTS*    NOT AVBL
PUU OPAE*      NOT AVBL
PUU LUA*       NOT AVBL
MAKAHA RIDGE*  NOT AVBL
$$

HIZ005>011-020000-
OAHU-

CITY           SKY/WX    TMP DP  RH WIND       PRES   REMARKS
HONOLULU       CLOUDY    81  62  52 E8        29.95F
KALAELOA       CLOUDY    80  64  58 SE13      29.96F
KANEOHE MCB    CLOUDY    78  63  59 NE7       29.95F
WHEELER FIELD  FAIR      75  63  64 E8        29.97F
BELLOWS*         N/A    N/A N/A N/A N6          N/A
KAHUKU*          N/A    N/A N/A N/A E8G16       N/A
WHEELER*       NOT AVBL
WAIANAE HARBOR NOT AVBL
DILLINGHAM*      N/A     81  64  57 MISG        N/A
KAHUKU TRN*      N/A     64  54  68 E9G18       N/A
KAWAILOA*        N/A    N/A N/A N/A E7          N/A
KII*             N/A     75  64  69 E12         N/A
MAKUA RANGE*     N/A     81  66  61 SW6G17      N/A
OAHU FOREST NW NOT AVBL
SCHOFIELD BRK*   N/A     59  46  63 MISG        N/A
SCHOFIELD S*   NOT AVBL
WAIANAE VLY*   NOT AVBL
KUAOKALA*      NOT AVBL
HONOULIUULI*   NOT AVBL
MOKUOLOE IS*   NOT AVBL
PALEHUA*       NOT AVBL
WAIAWA PHB*    NOT AVBL
$$

HIZ012>013-020000-
MOLOKAI-

CITY           SKY/WX    TMP DP  RH WIND       PRES   REMARKS
MOLOKAI AIRPT  PTSUNNY   77  64  64 NE10      29.98F
KALAUPAPA      NOT AVBL
MAKAPULAPAI*   NOT AVBL
MOLOKAI 1*     NOT AVBL
PUU ALII*        N/A     59  59  99 E1          N/A
$$

HIZ016-020000-
KAHOOLAWE-

CITY           SKY/WX    TMP DP  RH WIND       PRES   REMARKS
KAHOOLAWE*     NOT AVBL
HAKIOAWA*        N/A     73  70  89 MISG      30.38
HONOKANAIA*      N/A     81  67  62 N16G24    29.98F
KANELOA*         N/A     79  70  73 MISG        N/A
KEALIALALO*    NOT AVBL
LUA MAKIKA*    NOT AVBL
$$

HIZ014>015-020000-
LANAI-

CITY           SKY/WX    TMP DP  RH WIND       PRES   REMARKS
LANAI CITY     CLOUDY    77  65  66 N7        30.02F
LANAI 1*       NOT AVBL
$$

HIZ017>028-020000-
MAUI-

CITY           SKY/WX    TMP DP  RH WIND       PRES   REMARKS
KAHULUI        CLOUDY    73  68  84 N12       29.99F
KAPALUA-W MAUI PTSUNNY   75  66  73 NE14      29.99F
HANA AIRPORT   CLOUDY    73  70  88 N15       29.98F
HANA*            N/A     73 N/A N/A NE7G13      N/A
HALEAKALA SUMM   N/A     46  43  87 N14G26      N/A
MAALAEA BAY*   NOT AVBL
HALEAKALA*     NOT AVBL
KAUPO GAP*     NOT AVBL
KULA 1*          N/A     55  54  96 NW8         N/A
$$

HIZ023>026-020000-
BIG ISLAND OF HAWAII COAST AND LOWER SLOPES-

CITY           SKY/WX    TMP DP  RH WIND       PRES   REMARKS
KAILUA KONA    MOSUNNY   81  64  56 W8        29.92F
HILO           PTSUNNY   82  66  58 SE13      29.94F
HONOKAA*       NOT AVBL
KAWAIHAE MWT*    N/A     81 N/A N/A W9          N/A
KAWAIHAE*        N/A     77 N/A N/A NW15        N/A
SOUTH POINT*     N/A     75 N/A N/A NE14G20     N/A
UPOLU AIRPORT*   N/A    N/A N/A N/A NW6         N/A
KAMUELA*       NOT AVBL
HAKALAU*         N/A     59  53  81 SE6G12      N/A
KALOKO-HONOKO*   N/A     81  66  61 W7        29.92F
PALI 2*          N/A     64  61  88 SE6G14      N/A
KEALAKOMO*       N/A     79  66  65 SE2         N/A
KAUPULEHU*     NOT AVBL
KAPAPALA*        N/A     67  64  89 N1G7        N/A
LOWER KAHUKU*    N/A     66  59  77 E3G13       N/A
PUHE CS*         N/A     81  68  65 W7G13       N/A
PUHO CS*         N/A     81  64  56 W3          N/A
PTA KEAMUKU*     N/A     72  55  56 CALM        N/A
WAIKOLOA*      NOT AVBL
$$

HIZ027>028-020000-
BIG ISLAND OF HAWAII INTERIOR AND SUMMMITS-

CITY           SKY/WX    TMP DP  RH WIND       PRES   REMARKS
BRADSHAW FIELD SUNNY     68  38  33 SW7G13    30.24F
MK VISITOR CEN NOT AVBL
MAUNA KEA*       N/A     39   1  20 NW37        N/A  WCI  26
MAUNA LOA*       N/A     52  14  22 MISG        N/A
MAUNA LOA 1*   NOT AVBL
PTA KIPUKA*      N/A     72  45  37 N5G12       N/A
PTA RANGE 17*    N/A     68  45  42 NW8G16      N/A
PTA WEST*        N/A     70  52  52 NW10G17     N/A
NENE CABIN*      N/A     57  46  67 E7G15       N/A
AHUMOA*        NOT AVBL
PTA PORTABLE*  NOT AVBL
PUU MALI*      NOT AVBL
$$

HIC003-020000-
NORTHWEST ISLANDS-

CITY           SKY/WX    TMP DP  RH WIND       PRES   REMARKS
MIDWAY ISLAND  LGT RAIN  63  61  94 SE20      29.78F
MIDWAY NOS*    NOT AVBL
FRENCH FRIGATE NOT AVBL
$$

PHZ110>124-180-020000-
BUOY REPORTS

STATION/POSITION TIME  TEMP    WIND        PRES    WAVE   SWELL
                       AIR SEA DIR/SP/G            HT/PER HT/DIR
                 (UTC) (F)     (DEG/KT/KT) (MB)    (FT/S) (FT/D)
BUOY 51001       NOT AVBL
BUOY 51101       2300   71 73  100/  4/ 10 1014.2F   8/12
BUOY 51100       2300   72 76   80/  8/ 10 1015.3F
BUOY 51003       2300   77 78  120/ 12/ 16 1013.9F   9/13   8
BUOY 51004       2206   77 78  100/ 16/ 19 1013.0    9/15   7/340
BARBERS PT BUOY  NOT AVBL
WAIMEA BAY BUOY  2300      77                N/A     8/13
KAILUA BAY BUOY  2300      77                N/A     7/13   5/350
LANAI BUOY       2300      78                N/A     4/13   3/300
BARBERS PT 2     2300      77                N/A     6/12   3/310
PAUWELA MAUI     2300      76                N/A     9/13   7/340
HILO             2300      77                N/A     9/13   7/340
KANEOHE BAY BUOY 2300      76                N/A     7/11   5/350
HANALEI KAUAI    NOT AVBL
KAHULUI HARBOR   2300   72 77  340/ 13/ 15 1015.1F
HONOLULU HARBOR  2300   79 76   70/  3/  8 1014.0F
KILO NALU        NOT AVBL
HILO HARBOR      2300   87 77  130/  8/ 15 1013.0F
MOKUOLOE         2300      75              1014.9F
NAWILIWILI       2300      75                N/A
WHOTS BUOY       NOT AVBL
BUOY 51028       NOT AVBL
$$

......................KEY........................................
  SKY/WX - SKY CONDITIONS/PRESENT WEATHER
  TMP    - TEMPERATURE IN FAHRENHEIT
  DWPT   - DEWPOINT IN FAHRENHEIT
  RH     - RELATIVE HUMIDITY IN PERCENT
  WIND   - DIRECTION AND SPEED /MPH FOR ISLANDS...KTS FOR BUOYS/
  PRES   - MEAN SEA LEVEL PRESSURE IN INCHES OF HG
  VSB    - VISIBILITY IN MILES
  HX     - HEAT INDEX
  WCI    - WIND CHILL INDEX
  VRB    - VARIABLE WIND DIRECTION
  N/A    - NOT AVAILABLE


USA.gov is the U.S. government's official web portal to all federal, state and local government web resources and services.